DW1920 Weather Reports


Display with metric or nautical units.
time (UTC)temp
F
wind
direction
speed
MPH
gust
MPH
rain 1hr
in
rain 24hr
in
rain mn
in
humidity
%
barometer
mb
20260508000003 47 268 4.0 7.0 0.00 0.36 0.16 85 1003.6
20260507235002 47 223 2.0 5.0 0.00 0.37 0.16 85 1003.6
20260507234024 48 226 1.0 8.0 0.00 0.40 0.16 84 1003.7
20260507233024 48 229 3.0 6.0 0.00 0.46 0.16 84 1003.5
20260507232003 49 222 1.0 8.0 0.00 0.54 0.16 84 1003.5
20260507231003 49 251 4.0 11.0 0.00 0.66 0.16 84 1003.1
20260507230024 49 244 3.0 6.0 0.00 0.73 0.16 83 1003.0
20260507225002 49 240 2.0 7.0 0.00 0.78 0.16 83 1003.0
20260507224003 49 244 5.0 13.0 0.00 0.85 0.16 83 1002.9
20260507223002 50 205 11.0 15.0 0.00 0.97 0.16 83 1002.6
20260507222003 50 216 7.0 12.0 0.00 1.08 0.16 84 1002.4
20260507221003 49 233 5.0 12.0 0.00 1.14 0.16 84 1002.4
20260507220002 50 230 6.0 15.0 0.00 1.23 0.16 82 1002.2
20260507215003 50 219 12.0 16.0 0.00 1.27 0.16 84 1002.2
20260507214003 50 216 12.0 17.0 0.00 1.29 0.16 83 1002.3
20260507213003 50 214 12.0 18.0 0.00 1.32 0.16 83 1002.3
20260507212003 50 216 12.0 17.0 0.00 1.33 0.16 82 1002.3
20260507211003 51 217 14.0 22.0 0.00 1.34 0.16 81 1002.3
20260507210003 51 212 13.0 19.0 0.00 1.36 0.16 81 1002.3
20260507205003 51 214 13.0 19.0 0.00 1.38 0.16 82 1002.2
20260507204003 51 215 13.0 18.0 0.00 1.39 0.16 82 1002.0
20260507203003 51 215 12.0 19.0 0.00 1.40 0.16 82 1002.0
20260507202002 51 215 13.0 20.0 0.00 1.40 0.16 82 1002.1
20260507201003 51 209 13.0 21.0 0.00 1.41 0.16 82 1002.2
20260507200024 51 216 13.0 20.0 0.00 1.42 0.16 82 1002.3
20260507195002 51 214 14.0 20.0 0.00 1.42 0.16 82 1002.3
20260507194003 51 206 16.0 20.0 0.00 1.42 0.16 80 1002.4
20260507193003 52 203 16.0 22.0 0.00 1.42 0.16 79 1002.5
20260507192003 52 204 18.0 22.0 0.00 1.42 0.16 78 1002.4
20260507191003 52 217 12.0 19.0 0.00 1.42 0.16 80 1002.5
20260507190004 52 215 12.0 17.0 0.00 1.42 0.16 80 1002.7
20260507185003 52 218 11.0 17.0 0.00 1.42 0.16 82 1002.7
20260507184024 52 217 7.0 12.0 0.00 1.42 0.16 83 1002.9
20260507183003 52 211 9.0 12.0 0.00 1.42 0.16 83 1003.0
20260507182003 52 215 8.0 16.0 0.00 1.42 0.16 83 1003.1
20260507180003 52 222 11.0 17.0 0.00 1.42 0.16 84 1003.1
20260507175002 52 222 14.0 18.0 0.00 1.42 0.16 85 1003.4
20260507174003 51 219 11.0 18.0 0.00 1.42 0.16 86 1003.6
20260507173004 51 221 13.0 17.0 0.00 1.42 0.16 86 1003.3
20260507172002 51 216 12.0 18.0 0.00 1.42 0.16 86 1003.3
20260507171003 52 221 9.0 16.0 0.00 1.42 0.16 86 1003.3
20260507170002 51 219 10.0 15.0 0.00 1.42 0.16 85 1003.4
20260507165003 52 217 11.0 15.0 0.00 1.42 0.16 84 1003.5
20260507164003 52 218 9.0 13.0 0.00 1.42 0.16 85 1003.5
20260507163045 52 225 11.0 14.0 0.00 1.42 0.16 85 1003.6
20260507162003 52 214 9.0 12.0 0.00 1.42 0.16 85 1004.0
20260507161025 52 226 11.0 14.0 0.00 1.42 0.16 86 1004.0
20260507160003 52 225 10.0 12.0 0.00 1.42 0.16 86 1004.1
20260507155003 52 221 7.0 11.0 0.00 1.42 0.16 87 1004.1
20260507154002 51 222 9.0 14.0 0.00 1.42 0.16 86 1004.2
20260507153003 51 219 11.0 15.0 0.00 1.42 0.16 87 1004.2
20260507152023 51 225 10.0 13.0 0.00 1.42 0.16 88 1004.2
20260507151003 51 219 7.0 10.0 0.00 1.42 0.16 87 1004.3
20260507150003 51 219 7.0 11.0 0.00 1.42 0.16 88 1004.3
20260507145024 51 218 7.0 10.0 0.00 1.42 0.16 88 1004.4
20260507144024 51 216 8.0 11.0 0.00 1.42 0.16 87 1004.5
20260507143002 51 209 6.0 10.0 0.00 1.42 0.16 87 1004.5
20260507142003 51 189 9.0 11.0 0.00 1.42 0.16 85 1004.5
20260507141024 52 184 9.0 11.0 0.00 1.42 0.16 84 1004.7
20260507140003 52 286 6.0 9.0 0.00 1.42 0.16 86 1004.6
20260507135003 52 297 6.0 11.0 0.00 1.42 0.16 87 1004.6
20260507134002 51 294 7.0 11.0 0.00 1.42 0.16 88 1004.5
20260507133003 51 303 6.0 11.0 0.00 1.42 0.16 89 1004.7
20260507132023 51 287 8.0 12.0 0.00 1.42 0.16 90 1004.8
20260507131003 50 286 8.0 13.0 0.00 1.42 0.16 91 1004.9
20260507130003 50 293 8.0 11.0 0.00 1.42 0.16 92 1005.1
20260507125003 49 286 7.0 12.0 0.00 1.42 0.16 92 1005.2
20260507124003 48 291 7.0 13.0 0.00 1.42 0.16 93 1005.1
20260507123002 48 300 7.0 11.0 0.00 1.42 0.16 94 1004.9
20260507122024 47 301 7.0 11.0 0.00 1.42 0.16 95 1004.9
20260507121024 47 288 7.0 12.0 0.00 1.42 0.16 95 1004.9
20260507120003 47 302 9.0 12.0 0.00 1.42 0.16 95 1004.5
20260507115003 47 294 7.0 11.0 0.00 1.42 0.16 95 1004.7
20260507114003 46 297 6.0 9.0 0.00 1.42 0.16 95 1004.8
20260507113004 47 287 6.0 9.0 0.00 1.42 0.16 95 1005.1
20260507112003 46 312 3.0 8.0 0.00 1.42 0.16 96 1005.1
20260507111002 46 330 3.0 9.0 0.00 1.42 0.16 96 1005.2
20260507110003 46 312 6.0 11.0 0.00 1.42 0.16 96 1005.0
20260507105003 46 294 8.0 10.0 0.00 1.42 0.16 95 1005.4
20260507104003 46 280 6.0 9.0 0.00 1.42 0.16 96 1006.0
20260507103003 46 288 7.0 10.0 0.00 1.42 0.16 95 1005.1
20260507102024 46 299 5.0 9.0 0.00 1.42 0.16 96 1005.0
20260507101002 46 294 7.0 10.0 0.00 1.42 0.16 96 1005.1
20260507100003 46 312 6.0 11.0 0.00 1.42 0.16 96 1004.6
20260507095002 46 303 7.0 11.0 0.01 1.42 0.16 96 1004.7
20260507094003 47 309 7.0 11.0 0.00 1.41 0.15 96 1004.5
20260507093003 47 311 8.0 13.0 0.00 1.41 0.15 96 1004.3
20260507092003 47 309 6.0 12.0 0.00 1.41 0.15 96 1004.6
20260507091003 48 302 7.0 12.0 0.00 1.41 0.15 96 1004.5
20260507090002 48 291 3.0 8.0 0.00 1.41 0.15 96 1004.6
20260507085003 49 317 4.0 7.0 0.00 1.41 0.15 96 1004.3
20260507084002 49 319 3.0 6.0 0.00 1.41 0.15 96 1004.1
20260507083003 49 335 3.0 9.0 0.00 1.41 0.15 96 1004.1
20260507082003 49 318 3.0 8.0 0.00 1.41 0.15 96 1004.3
20260507081003 49 291 3.0 10.0 0.00 1.41 0.15 96 1004.3
20260507080003 49 294 5.0 9.0 0.01 1.41 0.15 96 1004.1
20260507075002 49 289 3.0 10.0 0.01 1.41 0.15 96 1004.3
20260507074003 49 303 5.0 9.0 0.01 1.41 0.15 96 1003.5
20260507073004 49 297 4.0 7.0 0.01 1.41 0.15 96 1003.7
20260507072003 49 311 3.0 6.0 0.01 1.41 0.15 96 1003.6
20260507071024 49 313 1.0 5.0 0.01 1.41 0.15 96 1003.4
20260507070007 49 309 4.0 7.0 0.00 1.40 0.14 96 1003.2
20260507065003 50 331 2.0 9.0 0.00 1.40 0.14 96 1003.3
20260507064024 49 315 4.0 9.0 0.00 1.40 0.14 96 1003.3
20260507063003 49 313 8.0 13.0 0.00 1.40 0.14 96 1003.4
20260507062004 49 304 7.0 12.0 0.00 1.40 0.14 96 1003.1
20260507061024 50 306 6.0 11.0 0.00 1.40 0.14 96 1002.9
20260507060002 50 290 5.0 12.0 0.04 1.40 0.14 96 1003.2
20260507055003 50 287 8.0 14.0 0.04 1.40 0.14 96 1003.0
20260507054003 50 308 7.0 10.0 0.04 1.40 0.14 96 1002.7
20260507053024 50 300 4.0 7.0 0.04 1.40 0.14 96 1003.0
20260507052025 50 307 3.0 7.0 0.04 1.40 0.14 97 1003.1
20260507051003 50 308 5.0 10.0 0.01 1.37 0.11 97 1003.1
20260507050003 49 298 7.0 16.0 0.00 1.36 0.10 96 1002.8
20260507045003 48 258 13.0 21.0 0.10 1.36 0.10 96 1003.1
20260507044003 47 256 12.0 17.0 0.07 1.33 0.07 96 1002.6
20260507043003 46 244 5.0 12.0 0.02 1.28 0.02 96 1002.5
20260507042045 46 246 5.0 13.0 0.00 1.26 0.00 96 1002.6
20260507041002 47 246 7.0 12.0 0.00 1.26 0.00 96 1002.5
20260507040003 47 251 7.0 10.0 0.00 1.26 1.26 96 1002.6
20260507035003 47 241 7.0 14.0 0.00 1.26 1.26 96 1002.6
20260507034003 47 232 8.0 19.0 0.00 1.26 1.26 96 1002.8
20260507033003 47 217 15.0 22.0 0.00 1.26 1.26 96 1002.6
20260507032003 47 216 16.0 23.0 0.00 1.26 1.26 96 1002.8
20260507031024 47 208 18.0 23.0 0.00 1.26 1.26 96 1002.7
20260507030003 47 208 19.0 24.0 0.00 1.26 1.26 96 1002.8
20260507025002 47 204 19.0 26.0 0.00 1.26 1.26 96 1002.9
20260507024004 47 202 21.0 26.0 0.00 1.26 1.26 96 1002.9
20260507023025 47 198 23.0 26.0 0.00 1.26 1.26 96 1003.1
20260507022003 47 198 22.0 27.0 0.00 1.26 1.26 96 1003.3
20260507021003 47 194 23.0 27.0 0.00 1.26 1.26 96 1003.3
20260507020002 48 195 24.0 28.0 0.04 1.26 1.26 95 1003.6
20260507015024 48 194 23.0 27.0 0.04 1.26 1.26 95 1003.5
20260507014003 48 192 24.0 29.0 0.03 1.25 1.25 96 1003.6
20260507013003 48 189 24.0 30.0 0.03 1.25 1.25 95 1003.7
20260507011024 48 187 24.0 29.0 0.01 1.23 1.23 95 1003.8
20260507010003 48 186 23.0 29.0 0.16 1.22 1.22 95 1003.9
20260507005003 48 185 26.0 32.0 0.14 1.20 1.20 95 1004.0
20260507004003 48 184 27.0 32.0 0.10 1.16 1.16 95 1004.1
20260507003045 49 182 25.0 35.0 0.06 1.12 1.12 95 1004.4
20260507002023 48 180 28.0 33.0 0.03 1.09 1.09 95 1004.2
20260507001003 48 181 25.0 31.0 0.02 1.08 1.08 95 1004.3